Location: Archemont
(49.1579°N, 1.7598°E)
Time: 14:22:08
(UTC+00:00)

Transit 2A - Pass Details

Date: 16 April 2024
Orbit: 594 x 958 km, 66.7° (Epoch: 27 May)

Event Time Altitude Azimuth Distance (km) Brightness Sun altitude
Rises 10:37:20 0° 293° (WNW) 2,958 8.7 48.2°
Reaches altitude 10° 10:41:12 10° 326° (NNW) 2,126 8.0 48.5°
Maximum altitude 10:42:56 12° 348° (NNW) 2,048 8.0 48.6°
Drops below altitude 10° 10:44:43 10° 9° (N) 2,206 8.2 48.7°
Sets 10:48:57 0° 41° (NE) 3,234 9.1 49.0°
